Orbital Elements at Epoch 2459200.5 (2020-Dec-17.0) TDB
Reference: JPL 40 (heliocentric ecliptic J2000)
Element | Value | Uncertainty (1-sigma) | Units |
e | .1108940049419892 | 3.0657e-08 | |
a | 3.035476265779061 | 1.324e-08 | au |
q | 2.698860145760468 | 9.4952e-08 | au |
i | 11.44963220348151 | 3.1592e-06 | deg |
node | 135.9003241926053 | 1.7257e-05 | deg |
peri | 262.9494274790533 | 2.3268e-05 | deg |
M | 357.1006919852336 | 1.4335e-05 | deg |
tp | 2459216.057168100800 (2021-Jan-01.55716810) | 7.6902e-05 | TDB |
period | 1931.695593487807 5.29 | 1.2639e-05 3.46e-08 | d yr |
n | .1863647674165864 | 1.2193e-09 | deg/d |
Q | 3.372092385797656 | 1.4709e-08 | au |
|
| | Orbit Determination Parameters
Additional Information
|